Regional Weather Roundup
Issued by NWS Kansas City/Pleasant Hill, MO

Home | Current Version | Previous Version | Text Only | Print | Product List | Glossary On
Versions: 1 2 3 4 5 6 7 8 9 10 11 12 13 14 15 16 17 18 19 20 21 22 23 24 25 26 27 28 29 30 31 32 33 34 35 36 37 38 39 40 41 42 43 44 45 46 47 48 49 50
000
ASUS43 KEAX 220011
RWREAX

WEATHER ROUNDUP FOR EASTERN KANSAS AND NORTHWEST MISSOURI
NATIONAL WEATHER SERVICE KANSAS CITY/PLEASANT HILL MO
700 PM CDT TUE OCT 21 2014

KSZ040-057-103>105-MOZ028-029-037-043-220100-
...KANSAS CITY METROPOLITAN AREA...

CITY           SKY/WX    TMP DP  RH WIND       PRES   REMARKS
K.C. INTL      CLEAR     65  43  44 E7        30.08R
6HR MIN TEMP:  65; 6HR MAX TEMP:  72;

K.C. DOWNTOWN  CLEAR     67  44  43 E6        30.07R
6HR MIN TEMP:  67; 6HR MAX TEMP:  76;

LEES SUMMIT    CLEAR     67  44  43 SE6       30.08S
6HR MIN TEMP:  67; 6HR MAX TEMP:  73;

OLATHE - IXD   CLEAR     65  45  48 E5        30.07S
6HR MIN TEMP:  65; 6HR MAX TEMP:  74;

OLATHE - OJC   CLEAR     66  43  43 E6        30.07R
6HR MIN TEMP:  66; 6HR MAX TEMP:  74;

LAWRENCE       CLEAR     62  43  49 E7        30.06R

$$

MOZ001>008-011>017-020>025-030>033-038>040-044>046-053-054-220100-
...NORTHERN AND CENTRAL MISSOURI...

CITY           SKY/WX    TMP DP  RH WIND       PRES   REMARKS
ST. JOSEPH     CLEAR     63  43  48 SE7       30.07R
6HR MIN TEMP:  63; 6HR MAX TEMP:  75;

MOSBY          CLEAR     61  43  51 CALM      30.08R
WHITEMAN AFB   CLEAR     63  46  53 SE2       30.09R
6HR MIN TEMP:  63; 6HR MAX TEMP:  72;

CLINTON        CLEAR     63  48  59 CALM      30.09R
SEDALIA        CLEAR     66  44  45 E5        30.10S
6HR MIN TEMP:  66; 6HR MAX TEMP:  75;

WARSAW         NOT AVBL
MARSHALL       CLEAR     63  48  59 E7        30.11R
CHILLICOTHE      N/A     64  46  52 VRB3      30.11S
6HR MIN TEMP:  64; 6HR MAX TEMP:  74;

MOBERLY        CLEAR     57  43  58 NE6       30.14R HAZE
KIRKSVILLE     CLEAR     56  45  66 E5        30.15R
6HR MIN TEMP:  56; 6HR MAX TEMP:  66;


$$

MOZ041-047>049-056>058-063>065-088>090-097-220100-
...EASTERN AND SOUTHERN MISSOURI...

CITY           SKY/WX    TMP DP  RH WIND       PRES   REMARKS
ST. LOUIS INTL CLEAR     62  43  49 NE6       30.14R
6HR MIN TEMP:  61; 6HR MAX TEMP:  68;

SPIRIT OF STL  CLEAR     55  45  68 CALM      30.13R
COLUMBIA       CLEAR     59  46  62 NE8       30.12R
JEFFERSON CITY CLEAR     66  44  45 NE7       30.10R
MEXICO         CLEAR     57  48  72 NE5       30.13R
HANNIBAL       CLEAR     54  41  62 CALM      30.16R
ROLLA          CLEAR     59  45  59 NE6       30.10R
LEBANON        CLEAR     61  45  55 CALM      30.11R
OSAGE BEACH    CLEAR     61  45  55 NE3       30.10R
SPRINGFIELD    CLEAR     65  45  48 NE3       30.08R
BRANSON        CLEAR     57  50  77 CALM      30.09S
NEVADA         CLEAR     61  48  63 E5        30.09R
JOPLIN         CLEAR     66  48  52 NE5       30.07R
WEST PLAINS    CLEAR     61  46  57 N3        30.10R

$$

IAZ060-094-KSZ022-034>040-054-083-096-NEZ052-066-093-220100-
...KANSAS...SOUTHEAST NEBRASKA AND IOWA...

CITY           SKY/WX    TMP DP  RH WIND       PRES   REMARKS
TOPEKA         CLEAR     65  44  46 E5        30.04S
6HR MIN TEMP:  65; 6HR MAX TEMP:  78;

MANHATTAN      CLEAR     70  51  51 SE6       30.01R
EMPORIA        CLEAR     66  55  67 SE7       30.04R
CHANUTE        CLEAR     68  56  65 E5        30.05S
WICHITA        CLEAR     73  58  59 SE8       30.00S
OMAHA          CLEAR     63  40  42 SE10      30.03S
LINCOLN        CLEAR     66  43  43 SE9       30.02R
FALLS CITY     CLEAR     62  38  40 SE6       30.04S
LAMONI         CLEAR     60  46  59 E7        30.10S
DES MOINES     CLEAR     60  43  53 E10       30.13R

$$




USA.gov is the U.S. government's official web portal to all federal, state and local government web resources and services.